RH
51 100 100 100 100 100 100 99 60 47 67 76 89 87 94 97 94 95 82 63 75 96 78 70 58 55 68 72 66 97 99 95 89
27 37 43 87 96 100 91 97 99 82 59 63 67 74 92 83 91 95 92 84 72 79 98 94 74 85 84 88 82 72 98 100 98
19 20 20 31 72 71 74 62 56 64 58 41 40 52 78 83 80 83 83 89 84 84 96 100 100 94 100 99 100 94 79 82 100
23 22 22 24 24 24 22 20 19 20 26 19 18 27 50 66 72 68 66 77 86 77 80 94 100 100 100 100 100 100 90 90 89
24 23 22 21 23 23 22 22 22 18 14 12 12 13 18 29 45 52 54 68 76 80 72 91 89 100 100 100 100 97 91 100 100
20 23 24 28 28 25 24 23 23 22 21 16 12 12 13 15 23 46 48 58 62 75 71 79 99 100 100 100 100 100 100 100 100
21 20 20 21 21 24 25 26 24 22 22 20 18 14 12 13 13 20 51 52 56 60 60 65 78 100 100 100 100 100 100 100 100
24 24 25 24 25 26 27 26 22 22 22 19 21 20 16 13 12 14 15 57 58 51 62 62 70 91 100 100 100 100 100 100 100
30 30 30 28 29 28 28 27 20 19 19 19 19 19 19 16 13 12 12 13 30 52 66 62 76 80 100 100 100 98 100 100 100
34 33 32 31 32 32 33 34 33 23 18 15 15 18 18 19 16 13 11 12 15 19 49 79 90 87 100 100 100 100 100 100 100
39 37 34 35 35 36 34 34 34 26 20 18 14 15 16 16 18 17 14 11 14 19 39 61 100 100 100 100 100 100 100 100 100
33 34 36 38 38 38 35 32 31 29 28 22 17 13 17 16 17 18 16 14 12 13 18 64 100 100 100 100 100 100 100 100 100
40 40 39 40 38 34 35 35 34 31 35 31 24 14 14 20 23 20 19 18 16 13 14 22 79 100 100 92 100 100 100 100 100
48 48 44 44 40 36 33 32 30 27 34 35 32 19 15 21 24 26 20 20 19 15 15 19 32 100 100 93 98 100 100 100 100
51 50 46 47 44 40 32 30 34 24 27 36 42 29 21 18 19 24 26 18 20 21 20 18 29 70 100 99 100 100 100 100 100
48 47 46 46 45 41 38 30 31 27 22 26 37 44 29 25 20 19 24 20 18 24 28 22 24 37 97 100 100 100 100 100 100
49 47 47 50 50 44 38 33 33 24 20 24 25 26 39 30 28 25 23 28 18 20 25 27 24 30 38 100 100 100 100 100 100
59 52 48 52 49 49 42 40 37 32 24 21 22 22 23 36 32 26 34 26 24 14 24 30 26 21 33 43 100 100 100 100 100
63 56 49 51 49 52 52 48 42 41 34 28 22 22 24 19 29 30 27 35 30 24 15 20 34 22 19 38 60 100 100 100 100
67 63 56 56 55 64 69 66 58 49 43 40 33 26 22 24 22 26 29 28 30 34 24 15 20 36 21 21 49 73 100 100 100
Wind_Speed
63 71 75 71 66 71 71 73 73 68 65 69 72 73 68 61 63 59 59 58 57 53 53 51 47 48 42 40 39 41 39 38 38
66 67 63 69 75 77 74 73 73 74 70 66 67 71 74 72 65 65 60 58 57 57 55 54 50 47 43 41 39 42 43 42 41
34 46 59 68 72 72 75 76 73 74 77 77 76 74 74 78 71 69 68 62 58 54 53 56 53 51 48 43 34 37 46 45 43
25 29 35 38 43 51 57 65 70 74 79 80 80 78 75 75 78 73 74 71 65 60 58 55 49 54 48 47 40 37 43 46 47
18 26 32 34 41 44 45 47 52 58 62 66 72 79 79 80 84 82 77 76 73 66 62 60 55 54 57 52 45 42 39 45 47
17 13 20 21 24 30 31 41 47 48 57 62 63 68 78 83 79 83 79 80 79 78 68 67 60 57 58 53 51 51 51 45 48
21 16 19 20 22 30 29 30 37 53 57 58 63 66 68 75 84 82 84 84 80 79 77 73 70 65 63 58 57 54 54 52 52
26 27 29 29 33 33 38 37 39 45 48 62 57 66 69 69 71 82 86 85 87 83 80 76 72 72 66 67 67 63 59 56 54
33 34 35 36 38 40 42 41 41 47 45 49 60 63 68 73 69 70 77 88 88 90 88 82 73 74 73 68 71 72 70 64 63
38 40 40 40 43 45 48 48 48 47 48 49 49 60 67 73 76 76 74 80 90 89 93 86 84 79 79 74 72 72 74 73 73
44 45 46 47 48 51 51 53 51 49 51 50 47 53 63 65 77 77 77 77 82 94 91 92 90 86 84 81 78 78 75 76 80
48 50 51 53 54 55 56 55 53 50 49 53 50 50 56 59 67 78 78 77 80 86 96 95 97 93 90 87 82 80 86 76 79
54 55 57 59 59 59 60 55 52 51 48 48 50 49 52 57 62 68 79 82 85 85 91 99 99 98 98 93 88 80 85 92 78
60 62 62 63 64 64 62 57 52 49 46 45 47 47 49 52 57 65 70 77 87 90 90 100 102 105 105 98 96 88 81 88 91
64 67 67 68 69 67 63 58 54 49 45 41 42 45 49 50 54 58 62 67 75 86 91 96 106 108 105 105 101 101 92 84 89
67 70 71 71 70 68 64 58 54 50 47 41 41 42 45 50 52 55 58 61 66 75 83 91 102 110 111 109 109 105 107 100 88
70 72 73 73 71 68 64 60 57 52 50 48 45 42 43 47 51 57 57 60 61 65 74 83 91 106 113 113 113 112 111 107 103
74 73 74 72 70 68 65 63 60 58 56 53 53 48 45 45 49 54 60 59 61 65 64 76 83 94 110 116 116 117 113 110 100
74 74 72 69 69 69 69 66 64 64 62 60 58 56 52 49 49 54 58 62 64 64 67 69 77 83 97 113 122 119 117 114 109
74 72 70 71 73 71 71 70 70 69 69 66 65 62 60 58 53 55 56 62 65 69 69 70 74 79 85 102 119 127 122 118 116
Wind_Direction
251 249 251 251 252 251 253 255 252 249 245 244 245 242 243 241 242 238 239 241 240 239 243 239 242 242 240 241 234 239 247 245 249
246 248 251 251 252 252 254 253 254 255 248 243 245 245 241 240 244 243 239 241 239 240 239 242 241 240 239 239 234 231 243 242 245
253 252 253 253 251 254 253 252 252 253 253 255 255 250 242 239 239 243 242 241 241 240 242 237 238 237 235 241 241 238 239 244 243
253 255 258 257 259 260 261 263 262 258 256 253 251 246 244 242 237 239 241 242 241 240 244 239 235 236 236 236 234 240 243 242 242
253 256 257 259 258 259 257 260 260 263 263 256 254 248 244 241 240 239 241 239 235 237 243 238 236 234 238 233 237 234 238 245 244
287 274 258 268 262 256 258 259 256 257 257 258 255 251 249 245 242 238 240 237 238 235 238 236 235 237 234 236 228 231 235 237 245
309 302 296 300 293 256 271 276 265 255 256 257 257 256 252 248 245 243 239 239 235 237 236 239 236 237 237 231 226 227 227 235 237
310 312 314 312 308 306 300 296 278 257 259 253 253 253 255 255 250 245 242 240 240 236 239 240 237 234 233 232 231 232 233 227 232
314 314 314 315 312 309 305 302 290 275 264 260 255 250 251 255 252 247 245 240 238 239 238 235 236 233 229 230 232 234 233 232 228
313 313 314 315 313 308 305 303 301 289 279 269 264 254 250 247 250 248 249 243 238 235 235 235 234 233 230 227 229 231 230 232 234
309 311 312 313 311 309 306 302 301 292 284 279 272 258 249 247 244 245 246 244 240 234 232 231 235 233 231 229 227 226 230 232 231
309 310 310 311 310 308 308 304 301 294 288 283 278 269 255 248 243 239 242 242 242 238 232 229 232 233 229 225 227 228 227 229 235
308 309 310 310 310 309 307 305 301 298 290 283 276 270 262 256 246 243 238 237 235 237 235 229 228 229 230 225 224 225 231 227 230
309 309 309 308 309 308 307 305 303 299 290 281 273 267 265 258 254 244 241 238 234 234 234 232 226 227 229 227 223 222 224 229 230
309 308 308 307 308 306 305 304 303 300 293 284 271 267 261 259 256 252 243 241 235 232 232 232 229 225 227 229 225 222 222 225 227
307 307 307 306 305 305 305 304 301 299 298 291 284 273 267 261 257 256 253 244 237 233 231 231 230 227 224 226 228 225 225 224 224
305 306 306 305 304 305 304 304 302 300 298 295 291 282 270 265 260 257 254 251 245 235 231 233 231 227 226 224 226 227 227 227 228
303 304 306 304 305 305 305 305 303 300 300 297 294 289 277 268 263 258 256 252 247 242 237 230 231 230 226 225 224 226 226 226 223
303 303 303 304 305 305 303 302 301 299 297 296 294 290 284 279 268 260 255 253 252 246 243 238 230 230 229 225 224 223 226 226 221
302 302 302 305 304 301 299 299 297 294 293 291 289 288 285 281 275 265 257 252 248 249 247 241 238 231 230 226 225 225 225 222 221